TimeCDT,TemperatureF,Dew PointF,Humidity,Sea Level PressureIn,VisibilityMPH,Wind Direction,Wind SpeedMPH,Gust SpeedMPH,PrecipitationIn,Events,Conditions,WindDirDegrees,DateUTC
12:15 AM,74.8,65.5,73,29.99,10.0,SE,6.9,-,N/A,,Clear,130,2013-10-10 05:15:00
12:35 AM,74.5,65.8,74,29.99,10.0,SE,6.9,-,N/A,,Clear,130,2013-10-10 05:35:00
12:55 AM,74.1,66.0,76,29.99,10.0,SE,6.9,-,N/A,,Clear,130,2013-10-10 05:55:00
1:15 AM,73.8,66.2,77,29.99,10.0,SE,6.9,-,N/A,,Clear,130,2013-10-10 06:15:00
1:35 AM,73.8,66.2,77,29.99,10.0,SE,6.9,-,N/A,,Scattered Clouds,130,2013-10-10 06:35:00
1:55 AM,74.1,66.2,76,29.99,10.0,SE,6.9,-,N/A,,Scattered Clouds,130,2013-10-10 06:55:00
2:15 AM,74.8,66.4,75,29.99,10.0,SE,5.8,-,N/A,,Clear,130,2013-10-10 07:15:00
2:35 AM,74.3,66.4,76,29.99,10.0,SE,5.8,-,N/A,,Scattered Clouds,130,2013-10-10 07:35:00
2:55 AM,74.5,66.6,76,29.99,10.0,SE,6.9,-,N/A,,Scattered Clouds,130,2013-10-10 07:55:00
3:15 AM,74.8,66.9,76,29.99,10.0,ESE,5.8,-,N/A,,Clear,120,2013-10-10 08:15:00
3:35 AM,74.3,67.1,78,29.98,10.0,ESE,5.8,-,N/A,,Clear,120,2013-10-10 08:35:00
3:55 AM,73.8,67.5,81,29.98,10.0,SE,5.8,-,N/A,,Clear,130,2013-10-10 08:55:00
4:15 AM,73.2,67.3,82,29.98,10.0,SE,5.8,-,N/A,,Clear,130,2013-10-10 09:15:00
4:35 AM,72.7,66.6,81,29.97,10.0,SE,4.6,-,N/A,,Clear,140,2013-10-10 09:35:00
4:55 AM,72.5,66.2,81,29.97,10.0,SE,5.8,-,N/A,,Clear,130,2013-10-10 09:55:00
5:15 AM,72.7,66.4,81,29.97,10.0,SE,5.8,-,N/A,,Clear,140,2013-10-10 10:15:00
5:35 AM,72.3,66.4,82,29.97,10.0,SE,5.8,-,N/A,,Clear,130,2013-10-10 10:35:00
5:55 AM,72.5,66.6,82,29.97,10.0,SE,4.6,-,N/A,,Scattered Clouds,130,2013-10-10 10:55:00
6:15 AM,73.0,67.1,82,29.97,10.0,SE,3.5,-,N/A,,Scattered Clouds,130,2013-10-10 11:15:00
6:35 AM,73.6,67.3,81,29.97,10.0,ESE,5.8,-,N/A,,Mostly Cloudy,120,2013-10-10 11:35:00
6:55 AM,73.6,67.3,81,29.97,10.0,ESE,4.6,-,N/A,,Scattered Clouds,120,2013-10-10 11:55:00
7:15 AM,73.6,67.5,81,29.97,10.0,ESE,5.8,-,N/A,,Scattered Clouds,120,2013-10-10 12:15:00
7:35 AM,73.8,67.8,82,29.97,10.0,ESE,5.8,-,N/A,,Mostly Cloudy,120,2013-10-10 12:35:00
7:55 AM,74.5,68.2,81,29.97,10.0,SE,5.8,-,N/A,,Scattered Clouds,130,2013-10-10 12:55:00
8:15 AM,75.2,68.9,81,29.97,10.0,SE,5.8,-,N/A,,Scattered Clouds,130,2013-10-10 13:15:00
8:35 AM,76.6,69.8,79,29.98,10.0,SSE,4.6,-,N/A,,Scattered Clouds,150,2013-10-10 13:35:00
8:55 AM,77.5,70.5,79,29.99,10.0,SSE,3.5,-,N/A,,Scattered Clouds,150,2013-10-10 13:55:00
9:15 AM,80.6,70.5,71,30.00,10.0,SSE,8.1,-,N/A,,Scattered Clouds,160,2013-10-10 14:15:00
9:35 AM,81.1,69.6,68,30.00,10.0,SSW,4.6,-,N/A,,Mostly Cloudy,200,2013-10-10 14:35:00
9:55 AM,81.0,69.4,68,30.01,10.0,SW,4.6,-,N/A,,Mostly Cloudy,220,2013-10-10 14:55:00
10:15 AM,81.1,68.0,64,30.01,10.0,SSW,3.5,-,N/A,,Overcast,210,2013-10-10 15:15:00
10:35 AM,82.4,68.2,62,30.01,10.0,South,4.6,-,N/A,,Mostly Cloudy,190,2013-10-10 15:35:00
10:55 AM,83.7,68.4,60,30.01,10.0,South,3.5,-,N/A,,Mostly Cloudy,170,2013-10-10 15:55:00
11:15 AM,83.5,68.2,60,30.00,10.0,SE,4.6,-,N/A,,Overcast,140,2013-10-10 16:15:00
11:35 AM,84.2,68.9,60,30.00,10.0,South,11.5,-,N/A,,Overcast,170,2013-10-10 16:35:00
11:55 AM,85.3,69.1,58,30.00,10.0,SSE,10.4,-,N/A,,Mostly Cloudy,160,2013-10-10 16:55:00
12:15 PM,85.5,69.1,58,29.99,10.0,SSE,11.5,-,N/A,,Mostly Cloudy,150,2013-10-10 17:15:00
12:35 PM,86.5,69.4,57,29.99,10.0,SSE,10.4,17.3,N/A,,Scattered Clouds,150,2013-10-10 17:35:00
12:55 PM,86.4,69.6,57,29.97,10.0,SE,9.2,-,N/A,,Scattered Clouds,130,2013-10-10 17:55:00
1:15 PM,85.6,69.8,59,29.97,10.0,SSE,12.7,17.3,N/A,,Scattered Clouds,160,2013-10-10 18:15:00
1:35 PM,87.3,68.9,54,29.96,10.0,SSE,12.7,16.1,N/A,,Scattered Clouds,150,2013-10-10 18:35:00
1:55 PM,86.7,68.9,55,29.94,10.0,SE,9.2,-,N/A,,Scattered Clouds,140,2013-10-10 18:55:00
2:15 PM,87.1,68.5,54,29.94,10.0,SE,15.0,20.7,N/A,,Scattered Clouds,130,2013-10-10 19:15:00
2:35 PM,87.4,68.2,53,29.92,10.0,SSE,13.8,20.7,N/A,,Scattered Clouds,150,2013-10-10 19:35:00
2:55 PM,86.7,68.9,55,29.92,10.0,SE,12.7,18.4,N/A,,Clear,140,2013-10-10 19:55:00
3:15 PM,86.4,69.1,56,29.92,10.0,SE,15.0,19.6,N/A,,Scattered Clouds,130,2013-10-10 20:15:00
3:35 PM,86.4,69.1,56,29.92,10.0,ESE,17.3,23.0,N/A,,Scattered Clouds,120,2013-10-10 20:35:00
3:55 PM,86.9,68.5,54,29.91,10.0,ESE,16.1,21.9,N/A,,Scattered Clouds,120,2013-10-10 20:55:00
4:15 PM,86.0,68.9,56,29.91,10.0,SE,16.1,21.9,N/A,,Scattered Clouds,140,2013-10-10 21:15:00
4:35 PM,85.3,69.4,59,29.90,10.0,ESE,17.3,23.0,N/A,,Scattered Clouds,120,2013-10-10 21:35:00
4:55 PM,84.7,69.8,61,29.90,10.0,ESE,16.1,20.7,N/A,,Scattered Clouds,120,2013-10-10 21:55:00
5:15 PM,83.5,70.2,64,29.90,10.0,ESE,15.0,21.9,N/A,,Scattered Clouds,120,2013-10-10 22:15:00
5:35 PM,83.3,70.5,65,29.90,10.0,SE,9.2,19.6,N/A,,Mostly Cloudy,130,2013-10-10 22:35:00
5:55 PM,83.5,71.1,66,29.90,10.0,SE,11.5,18.4,N/A,,Mostly Cloudy,130,2013-10-10 22:55:00
6:15 PM,82.9,70.9,67,29.90,10.0,SE,9.2,-,N/A,,Scattered Clouds,140,2013-10-10 23:15:00
6:35 PM,82.6,70.3,66,29.90,10.0,SE,12.7,16.1,N/A,,Scattered Clouds,140,2013-10-10 23:35:00
6:55 PM,81.7,70.7,69,29.90,10.0,SE,9.2,-,N/A,,Scattered Clouds,140,2013-10-10 23:55:00
7:15 PM,80.6,70.7,72,29.90,10.0,SE,11.5,-,N/A,,Scattered Clouds,140,2013-10-11 00:15:00
7:35 PM,80.2,70.3,72,29.90,10.0,SE,12.7,-,N/A,,Scattered Clouds,140,2013-10-11 00:35:00
7:55 PM,80.2,71.1,73,29.91,10.0,SE,11.5,18.4,N/A,,Scattered Clouds,140,2013-10-11 00:55:00
8:15 PM,80.2,71.4,74,29.91,10.0,SSE,9.2,-,N/A,,Scattered Clouds,150,2013-10-11 01:15:00
8:35 PM,79.9,71.2,75,29.92,10.0,SE,11.5,-,N/A,,Scattered Clouds,140,2013-10-11 01:35:00
8:55 PM,80.2,70.9,73,29.92,10.0,SE,11.5,-,N/A,,Mostly Cloudy,140,2013-10-11 01:55:00
9:15 PM,80.1,70.7,73,29.91,10.0,SE,9.2,-,N/A,,Scattered Clouds,140,2013-10-11 02:15:00
9:35 PM,79.9,70.3,73,29.91,10.0,SE,11.5,-,N/A,,Clear,140,2013-10-11 02:35:00
9:55 PM,80.1,70.5,73,29.91,10.0,SE,11.5,18.4,N/A,,Scattered Clouds,140,2013-10-11 02:55:00
10:15 PM,80.2,70.7,73,29.91,10.0,SE,11.5,-,N/A,,Scattered Clouds,140,2013-10-11 03:15:00
10:35 PM,79.9,71.1,74,29.91,10.0,SE,13.8,18.4,N/A,,Scattered Clouds,140,2013-10-11 03:35:00
10:55 PM,80.4,71.4,74,29.91,10.0,SE,13.8,20.7,N/A,,Mostly Cloudy,140,2013-10-11 03:55:00
11:15 PM,80.8,72.0,74,29.91,10.0,SE,13.8,19.6,N/A,,Overcast,140,2013-10-11 04:15:00
11:35 PM,80.8,72.0,74,29.91,10.0,SE,12.7,-,N/A,,Mostly Cloudy,140,2013-10-11 04:35:00
11:55 PM,80.8,72.0,74,29.91,10.0,SE,12.7,23.0,N/A,,Mostly Cloudy,140,2013-10-11 04:55:00